,,,PA_Meas_PMT16A,,PR_Meas_QMR101_102,,RH_Meas_QMH101,,SR_Meas_QMS101,,TA_Meas_QMH101,,GenWind,,GenWind,
date,time,status,PA,status,PR,status,RH,status,SR,status,TA,status,DirAvg,status,SpdAvg,
2014-09-24, 00:00:04,VALID,1010.11,VALID,0,INVALID,110.482,VALID,0.112112,VALID,22.1728,VALID,326,VALID,0.610937,
2014-09-24, 00:01:04,VALID,1010.05,VALID,0,INVALID,110.467,VALID,0,VALID,22.1728,VALID,326,VALID,0.545703,
2014-09-24, 00:02:04,VALID,1009.99,VALID,0,INVALID,110.467,VALID,0,VALID,22.2329,VALID,326,VALID,0.441797,
2014-09-24, 00:03:04,VALID,1009.91,VALID,0,INVALID,110.436,VALID,0,VALID,22.2329,VALID,326,VALID,0,
2014-09-24, 00:04:04,VALID,1009.87,VALID,0,INVALID,110.436,VALID,0,VALID,22.2312,VALID,326,VALID,0.248828,
2014-09-24, 00:05:04,VALID,1009.85,VALID,0,INVALID,110.383,VALID,0.112112,VALID,22.2719,VALID,326,VALID,0.315625,
2014-09-24, 00:06:04,VALID,1009.84,VALID,0,INVALID,110.398,VALID,0,VALID,22.2702,VALID,326,VALID,0.30625,
2014-09-24, 00:07:04,VALID,1009.85,VALID,0,INVALID,110.436,VALID,0,VALID,22.2524,VALID,326,VALID,0.512891,
2014-09-24, 00:08:04,VALID,1009.85,VALID,0,INVALID,110.451,VALID,0,VALID,22.2719,VALID,326,VALID,0.712109,
2014-09-24, 00:09:04,VALID,1009.87,VALID,0,INVALID,110.406,VALID,0,VALID,22.2719,VALID,326,VALID,0.898438,
2014-09-24, 00:10:04,VALID,1009.87,VALID,0,INVALID,110.413,VALID,0,VALID,22.2719,VALID,359,VALID,1.26602,
2014-09-24, 00:11:04,VALID,1009.85,VALID,0,INVALID,110.39,VALID,0,VALID,22.2914,VALID,359,VALID,1.06484,
2014-09-24, 00:12:04,VALID,1009.8,VALID,0,INVALID,110.467,VALID,0.112112,VALID,22.2524,VALID,359,VALID,1.24258,
2014-09-24, 00:13:04,VALID,1009.75,VALID,0,INVALID,110.459,VALID,0.112112,VALID,22.2118,VALID,359,VALID,0.774609,
2014-09-24, 00:14:04,VALID,1009.68,VALID,0,INVALID,110.543,VALID,0,VALID,22.1728,VALID,359,VALID,0.892187,
2014-09-24, 00:15:04,VALID,1009.63,VALID,0,INVALID,110.528,VALID,0.112112,VALID,22.1533,VALID,359,VALID,0.501562,
2014-09-24, 00:16:04,VALID,1009.63,VALID,0,INVALID,110.49,VALID,0.112112,VALID,22.1745,VALID,359,VALID,0.557422,
2014-09-24, 00:17:04,VALID,1009.62,VALID,0,INVALID,110.581,VALID,0.112112,VALID,22.1355,VALID,359,VALID,0.575,
2014-09-24, 00:18:04,VALID,1009.59,VALID,0,INVALID,110.566,VALID,0,VALID,22.1355,VALID,359,VALID,0.891016,
2014-09-24, 00:19:04,VALID,1009.6,VALID,0,INVALID,110.551,VALID,0,VALID,22.1161,VALID,359,VALID,0.898828,
2014-09-24, 00:20:04,VALID,1009.58,VALID,0,INVALID,110.505,VALID,0.112112,VALID,22.1144,VALID,359,VALID,0.548828,
2014-09-24, 00:21:04,VALID,1009.56,VALID,0,INVALID,110.52,VALID,0,VALID,22.1161,VALID,359,VALID,0.864844,
2014-09-24, 00:22:04,VALID,1009.55,VALID,0,INVALID,110.535,VALID,0.112112,VALID,22.056,VALID,359,VALID,0.746875,
2014-09-24, 00:23:04,VALID,1009.5,VALID,0,INVALID,110.551,VALID,0.112112,VALID,22.056,VALID,359,VALID,0.607031,
2014-09-24, 00:24:04,VALID,1009.5,VALID,0,INVALID,110.566,VALID,0,VALID,22.056,VALID,359,VALID,0.915625,
2014-09-24, 00:25:04,VALID,1009.51,VALID,0,INVALID,110.558,VALID,0,VALID,22.0576,VALID,359,VALID,0.736328,
2014-09-24, 00:26:04,VALID,1009.51,VALID,0,INVALID,110.528,VALID,0.112112,VALID,22.0365,VALID,359,VALID,0.224219,
2014-09-24, 00:27:04,VALID,1009.49,VALID,0,INVALID,110.474,VALID,0,VALID,22.0576,VALID,359,VALID,0.117188,
2014-09-24, 00:28:04,VALID,1009.51,VALID,0,INVALID,110.429,VALID,0,VALID,22.0966,VALID,359,VALID,0.00078125,
2014-09-24, 00:29:04,VALID,1009.51,VALID,0,INVALID,110.436,VALID,0,VALID,22.0966,VALID,359,VALID,0.0824219,
2014-09-24, 00:30:04,VALID,1009.53,VALID,0,INVALID,110.482,VALID,0,VALID,22.0771,VALID,359,VALID,0.250781,
2014-09-24, 00:31:04,VALID,1009.54,VALID,0,INVALID,110.467,VALID,0,VALID,22.0983,VALID,359,VALID,0.163281,
2014-09-24, 00:32:04,VALID,1009.58,VALID,0,INVALID,110.39,VALID,0,VALID,22.1161,VALID,359,VALID,0.647266,
2014-09-24, 00:33:04,VALID,1009.59,VALID,0,INVALID,110.429,VALID,0,VALID,22.1161,VALID,359,VALID,0.635547,
2014-09-24, 00:34:04,VALID,1009.58,VALID,0,INVALID,110.474,VALID,0,VALID,22.0983,VALID,359,VALID,0.734375,
2014-09-24, 00:35:04,VALID,1009.57,VALID,0,INVALID,110.49,VALID,0,VALID,22.0983,VALID,359,VALID,0.760938,
2014-09-24, 00:36:04,VALID,1009.56,VALID,0,INVALID,110.482,VALID,0,VALID,22.0771,VALID,359,VALID,0.453906,
2014-09-24, 00:37:04,VALID,1009.54,VALID,0,INVALID,110.482,VALID,0,VALID,22.0771,VALID,359,VALID,0.5625,
2014-09-24, 00:38:04,VALID,1009.53,VALID,0,INVALID,110.535,VALID,0,VALID,22.0593,VALID,359,VALID,0.327734,
2014-09-24, 00:39:04,VALID,1009.49,VALID,0,INVALID,110.512,VALID,0,VALID,22.0593,VALID,359,VALID,0.01875,
2014-09-24, 00:40:04,VALID,1009.46,VALID,0,INVALID,110.497,VALID,0,VALID,22.0593,VALID,359,VALID,0.451172,
2014-09-24, 00:41:04,VALID,1009.42,VALID,0,INVALID,110.459,VALID,0,VALID,22.0576,VALID,359,VALID,0.661328,
2014-09-24, 00:42:04,VALID,1009.38,VALID,0,INVALID,110.528,VALID,0.112112,VALID,22.0382,VALID,359,VALID,0.0761719,
2014-09-24, 00:43:04,VALID,1009.35,VALID,0,INVALID,110.49,VALID,0.112112,VALID,22.0576,VALID,359,VALID,0.0628906,
2014-09-24, 00:44:04,VALID,1009.36,VALID,0,INVALID,110.482,VALID,0.112112,VALID,22.017,VALID,359,VALID,0.233203,
2014-09-24, 00:45:04,VALID,1009.35,VALID,0,INVALID,110.467,VALID,0,VALID,22.0382,VALID,359,VALID,0,
2014-09-24, 00:46:04,VALID,1009.32,VALID,0,INVALID,110.451,VALID,0.112112,VALID,22.0365,VALID,359,VALID,0.546875,
2014-09-24, 00:47:04,VALID,1009.3,VALID,0,INVALID,110.49,VALID,0.112112,VALID,22.0382,VALID,359,VALID,0.666406,
2014-09-24, 00:48:04,VALID,1009.29,VALID,0,INVALID,110.512,VALID,0,VALID,22.0382,VALID,359,VALID,0.666406,
2014-09-24, 00:49:04,VALID,1009.28,VALID,0,INVALID,110.52,VALID,0,VALID,22.0187,VALID,359,VALID,0.798437,
2014-09-24, 00:50:04,VALID,1009.3,VALID,0,INVALID,110.535,VALID,0.112112,VALID,21.9992,VALID,359,VALID,0.515625,
2014-09-24, 00:51:04,VALID,1009.3,VALID,0,INVALID,110.52,VALID,0,VALID,21.9992,VALID,359,VALID,0.529297,
2014-09-24, 00:52:04,VALID,1009.34,VALID,0,INVALID,110.436,VALID,0,VALID,22.0382,VALID,359,VALID,0.346094,
2014-09-24, 00:53:04,VALID,1009.36,VALID,0,INVALID,110.398,VALID,0,VALID,22.0576,VALID,359,VALID,0.175,
2014-09-24, 00:54:04,VALID,1009.36,VALID,0,INVALID,110.421,VALID,0,VALID,22.0771,VALID,359,VALID,0.0621094,
2014-09-24, 00:55:04,VALID,1009.39,VALID,0,INVALID,110.406,VALID,0.112112,VALID,22.056,VALID,359,VALID,0.160156,
2014-09-24, 00:56:04,VALID,1009.41,VALID,0,INVALID,110.39,VALID,0,VALID,22.1161,VALID,359,VALID,0.0472656,
2014-09-24, 00:57:04,VALID,1009.44,VALID,0,INVALID,110.459,VALID,0.112112,VALID,22.0771,VALID,359,VALID,0.255859,
2014-09-24, 00:58:04,VALID,1009.44,VALID,0,INVALID,110.459,VALID,0,VALID,22.0771,VALID,359,VALID,0.236328,
2014-09-24, 00:59:04,VALID,1009.45,VALID,0,INVALID,110.451,VALID,0,VALID,22.0771,VALID,359,VALID,0.717188,
2014-09-24, 01:00:04,VALID,1009.44,VALID,0,INVALID,110.413,VALID,0,VALID,22.0754,VALID,359,VALID,0.367969,
2014-09-24, 01:01:04,VALID,1009.47,VALID,0,INVALID,110.39,VALID,0,VALID,22.0966,VALID,359,VALID,0.867578,
2014-09-24, 01:02:04,VALID,1009.46,VALID,0,INVALID,110.451,VALID,0.112112,VALID,22.056,VALID,359,VALID,0.2375,
2014-09-24, 01:03:04,VALID,1009.44,VALID,0,INVALID,110.474,VALID,0,VALID,22.0576,VALID,359,VALID,0,
2014-09-24, 01:04:04,VALID,1009.46,VALID,0,INVALID,110.436,VALID,0.112112,VALID,22.056,VALID,359,VALID,0.00117188,
2014-09-24, 01:05:04,VALID,1009.45,VALID,0,INVALID,110.406,VALID,0,VALID,22.0966,VALID,359,VALID,0.0671875,
2014-09-24, 01:06:04,VALID,1009.46,VALID,0,INVALID,110.39,VALID,0.112112,VALID,22.0754,VALID,359,VALID,0,
2014-09-24, 01:07:04,VALID,1009.45,VALID,0,INVALID,110.39,VALID,0,VALID,22.0966,VALID,359,VALID,0,
2014-09-24, 01:08:04,VALID,1009.44,VALID,0,INVALID,110.383,VALID,0,VALID,22.1144,VALID,359,VALID,0,
2014-09-24, 01:09:04,VALID,1009.46,VALID,0,INVALID,110.398,VALID,0.112112,VALID,22.1161,VALID,359,VALID,0,
2014-09-24, 01:10:04,VALID,1009.45,VALID,0,INVALID,110.413,VALID,0,VALID,22.1161,VALID,359,VALID,0.240234,
2014-09-24, 01:11:04,VALID,1009.46,VALID,0,INVALID,110.436,VALID,0.112112,VALID,22.0966,VALID,359,VALID,0.291797,
2014-09-24, 01:12:04,VALID,1009.48,VALID,0,INVALID,110.467,VALID,0.112112,VALID,22.0754,VALID,359,VALID,0,
2014-09-24, 01:13:04,VALID,1009.48,VALID,0,INVALID,110.436,VALID,0.112112,VALID,22.0754,VALID,359,VALID,0.151953,
2014-09-24, 01:14:04,VALID,1009.47,VALID,0,INVALID,110.421,VALID,0.112112,VALID,22.056,VALID,359,VALID,0.298438,
2014-09-24, 01:15:04,VALID,1009.45,VALID,0,INVALID,110.459,VALID,0.112112,VALID,22.0771,VALID,359,VALID,0.50625,
2014-09-24, 01:16:04,VALID,1009.44,VALID,0,INVALID,110.421,VALID,0.112112,VALID,22.0754,VALID,359,VALID,0.276953,
2014-09-24, 01:17:04,VALID,1009.4,VALID,0,INVALID,110.429,VALID,0.112112,VALID,22.0754,VALID,359,VALID,0.400781,
2014-09-24, 01:18:04,VALID,1009.4,VALID,0,INVALID,110.398,VALID,0.112112,VALID,22.0949,VALID,359,VALID,0,
2014-09-24, 01:19:04,VALID,1009.42,VALID,0,INVALID,110.36,VALID,0.112112,VALID,22.1355,VALID,359,VALID,0.329297,
2014-09-24, 01:20:04,VALID,1009.39,VALID,0,INVALID,110.375,VALID,0.112112,VALID,22.1144,VALID,359,VALID,0.430078,
2014-09-24, 01:21:04,VALID,1009.4,VALID,0,INVALID,110.36,VALID,0.112112,VALID,22.1339,VALID,359,VALID,0,
2014-09-24, 01:22:04,VALID,1009.37,VALID,0,INVALID,110.329,VALID,0.112112,VALID,22.1533,VALID,359,VALID,0,
2014-09-24, 01:23:04,VALID,1009.38,VALID,0,INVALID,110.345,VALID,0,VALID,22.1728,VALID,359,VALID,0,
2014-09-24, 01:24:04,VALID,1009.39,VALID,0,INVALID,110.368,VALID,0.112112,VALID,22.1728,VALID,359,VALID,0,
2014-09-24, 01:25:04,VALID,1009.36,VALID,0,INVALID,110.345,VALID,0,VALID,22.1923,VALID,359,VALID,0,
2014-09-24, 01:26:04,VALID,1009.38,VALID,0,INVALID,110.329,VALID,0,VALID,22.2329,VALID,359,VALID,0,
2014-09-24, 01:27:04,VALID,1009.37,VALID,0,INVALID,110.329,VALID,0,VALID,22.2524,VALID,359,VALID,0,
2014-09-24, 01:28:04,VALID,1009.4,VALID,0,INVALID,110.337,VALID,0,VALID,22.2312,VALID,359,VALID,0,
2014-09-24, 01:29:04,VALID,1009.37,VALID,0,INVALID,110.307,VALID,0,VALID,22.2719,VALID,359,VALID,0,
2014-09-24, 01:30:04,VALID,1009.37,VALID,0.5,INVALID,110.345,VALID,0,VALID,22.2507,VALID,359,VALID,0.25625,
2014-09-24, 01:31:04,VALID,1009.38,VALID,0,INVALID,110.368,VALID,0,VALID,22.2312,VALID,359,VALID,0,
2014-09-24, 01:32:04,VALID,1009.39,VALID,0,INVALID,110.322,VALID,0,VALID,22.2507,VALID,359,VALID,0,
2014-09-24, 01:33:04,VALID,1009.38,VALID,0,INVALID,110.337,VALID,0.112112,VALID,22.2524,VALID,359,VALID,0,
2014-09-24, 01:34:04,VALID,1009.38,VALID,0,INVALID,110.329,VALID,0,VALID,22.2524,VALID,359,VALID,0,
2014-09-24, 01:35:04,VALID,1009.35,VALID,0,INVALID,110.307,VALID,0,VALID,22.2507,VALID,359,VALID,0.0199219,
2014-09-24, 01:36:04,VALID,1009.34,VALID,0,INVALID,110.345,VALID,0,VALID,22.2719,VALID,359,VALID,0.295312,
2014-09-24, 01:37:04,VALID,1009.34,VALID,0,INVALID,110.329,VALID,0,VALID,22.2507,VALID,359,VALID,0.362109,
2014-09-24, 01:38:04,VALID,1009.32,VALID,0,INVALID,110.39,VALID,0.112112,VALID,22.2524,VALID,359,VALID,0.235547,
2014-09-24, 01:39:04,VALID,1009.3,VALID,0,INVALID,110.398,VALID,0,VALID,22.2329,VALID,359,VALID,0.203125,
2014-09-24, 01:40:04,VALID,1009.32,VALID,0,INVALID,110.421,VALID,0,VALID,22.2118,VALID,359,VALID,0.259375,
2014-09-24, 01:41:04,VALID,1009.34,VALID,0,INVALID,110.383,VALID,0,VALID,22.2118,VALID,359,VALID,0.151953,
2014-09-24, 01:42:04,VALID,1009.35,VALID,0,INVALID,110.375,VALID,0,VALID,22.2118,VALID,359,VALID,0,
2014-09-24, 01:43:04,VALID,1009.35,VALID,0,INVALID,110.39,VALID,0.112112,VALID,22.1923,VALID,359,VALID,0.386719,
2014-09-24, 01:44:04,VALID,1009.36,VALID,0,INVALID,110.375,VALID,0,VALID,22.2118,VALID,359,VALID,0.233203,
2014-09-24, 01:45:04,VALID,1009.33,VALID,0,INVALID,110.375,VALID,0,VALID,22.2329,VALID,359,VALID,0,
2014-09-24, 01:46:04,VALID,1009.34,VALID,0,INVALID,110.375,VALID,0,VALID,22.2329,VALID,359,VALID,0.239844,
2014-09-24, 01:47:04,VALID,1009.34,VALID,0,INVALID,110.352,VALID,0.112112,VALID,22.2329,VALID,359,VALID,0.344141,
2014-09-24, 01:48:04,VALID,1009.28,VALID,0,INVALID,110.322,VALID,0.112112,VALID,22.2507,VALID,359,VALID,0.0699219,
2014-09-24, 01:49:04,VALID,1009.24,VALID,0,INVALID,110.268,VALID,0,VALID,22.2914,VALID,359,VALID,0.00585938,
2014-09-24, 01:50:04,VALID,1009.22,VALID,0,INVALID,110.314,VALID,0.112112,VALID,22.2897,VALID,359,VALID,0.490234,
2014-09-24, 01:51:04,VALID,1009.16,VALID,0,INVALID,110.36,VALID,0.112112,VALID,22.2702,VALID,359,VALID,0.478516,
2014-09-24, 01:52:04,VALID,1009.17,VALID,0,INVALID,110.352,VALID,0.112112,VALID,22.2719,VALID,359,VALID,0.0121094,
2014-09-24, 01:53:04,VALID,1009.16,VALID,0,INVALID,110.314,VALID,0,VALID,22.2702,VALID,359,VALID,0.295703,
2014-09-24, 01:54:04,VALID,1009.15,VALID,0,INVALID,110.276,VALID,0,VALID,22.2897,VALID,359,VALID,0.0105469,
2014-09-24, 01:55:04,VALID,1009.13,VALID,0,INVALID,110.276,VALID,0,VALID,22.3303,VALID,359,VALID,0.0753906,
2014-09-24, 01:56:04,VALID,1009.1,VALID,0,INVALID,110.276,VALID,0,VALID,22.3303,VALID,359,VALID,0.371094,
2014-09-24, 01:57:04,VALID,1009.09,VALID,0,INVALID,110.299,VALID,0.112112,VALID,22.3303,VALID,359,VALID,0.173828,
2014-09-24, 01:58:04,VALID,1009.13,VALID,0,INVALID,110.261,VALID,0,VALID,22.3498,VALID,359,VALID,0.0382813,
2014-09-24, 01:59:04,VALID,1009.1,VALID,0,INVALID,110.261,VALID,0,VALID,22.3498,VALID,359,VALID,0.321094,
2014-09-24, 02:00:04,VALID,1009.14,VALID,0,INVALID,110.299,VALID,0,VALID,22.3303,VALID,359,VALID,0,
2014-09-24, 02:01:04,VALID,1009.12,VALID,0,INVALID,110.337,VALID,0,VALID,22.3108,VALID,359,VALID,0,
2014-09-24, 02:02:04,VALID,1009.15,VALID,0,INVALID,110.375,VALID,0.112112,VALID,22.2914,VALID,359,VALID,0.0015625,
2014-09-24, 02:03:04,VALID,1009.15,VALID,0,INVALID,110.322,VALID,0,VALID,22.2914,VALID,359,VALID,0.0394531,
2014-09-24, 02:04:04,VALID,1009.14,VALID,0,INVALID,110.307,VALID,0,VALID,22.2897,VALID,359,VALID,0.245703,
2014-09-24, 02:05:04,VALID,1009.12,VALID,0,INVALID,110.299,VALID,0.112112,VALID,22.3091,VALID,359,VALID,0.258984,
2014-09-24, 02:06:04,VALID,1009.11,VALID,0,INVALID,110.39,VALID,0.112112,VALID,22.2507,VALID,359,VALID,0.510547,
2014-09-24, 02:07:04,VALID,1009.14,VALID,0,INVALID,110.329,VALID,0.112112,VALID,22.2914,VALID,359,VALID,0.571094,
2014-09-24, 02:08:04,VALID,1009.14,VALID,0,INVALID,110.352,VALID,0,VALID,22.2719,VALID,359,VALID,0.459766,
2014-09-24, 02:09:04,VALID,1009.12,VALID,0,INVALID,110.406,VALID,0,VALID,22.2312,VALID,359,VALID,0.428516,
2014-09-24, 02:10:04,VALID,1009.11,VALID,0,INVALID,110.352,VALID,0,VALID,22.2507,VALID,359,VALID,0.422656,
2014-09-24, 02:11:04,VALID,1009.13,VALID,0,INVALID,110.322,VALID,0,VALID,22.2719,VALID,359,VALID,0.585938,
2014-09-24, 02:12:04,VALID,1009.12,VALID,0,INVALID,110.276,VALID,0,VALID,22.2897,VALID,359,VALID,0.660547,
2014-09-24, 02:13:04,VALID,1009.17,VALID,0,INVALID,110.36,VALID,0.112112,VALID,22.2507,VALID,359,VALID,0.790234,
2014-09-24, 02:14:04,VALID,1009.18,VALID,0,INVALID,110.375,VALID,0.112112,VALID,22.2719,VALID,359,VALID,0.680078,
2014-09-24, 02:15:04,VALID,1009.16,VALID,0,INVALID,110.337,VALID,0,VALID,22.2914,VALID,359,VALID,0.660937,
2014-09-24, 02:16:04,VALID,1009.2,VALID,0,INVALID,110.322,VALID,0.112112,VALID,22.2702,VALID,359,VALID,0.702734,
2014-09-24, 02:17:04,VALID,1009.2,VALID,0,INVALID,110.276,VALID,0.112112,VALID,22.3091,VALID,359,VALID,0.495703,
2014-09-24, 02:18:04,VALID,1009.22,VALID,0,INVALID,110.291,VALID,0.112112,VALID,22.3091,VALID,359,VALID,0.530469,
2014-09-24, 02:19:04,VALID,1009.2,VALID,0,INVALID,110.322,VALID,0.112112,VALID,22.3108,VALID,360,VALID,1.07852,
2014-09-24, 02:20:04,VALID,1009.18,VALID,0,INVALID,110.299,VALID,0.112112,VALID,22.3303,VALID,360,VALID,0.7625,
2014-09-24, 02:21:04,VALID,1009.22,VALID,0,INVALID,110.276,VALID,0.112112,VALID,22.3091,VALID,360,VALID,0.751953,
2014-09-24, 02:22:04,VALID,1009.21,VALID,0,INVALID,110.322,VALID,0.112112,VALID,22.3091,VALID,360,VALID,0.994531,
2014-09-24, 02:23:04,VALID,1009.19,VALID,0,INVALID,110.314,VALID,0.112112,VALID,22.2897,VALID,360,VALID,1.09961,
2014-09-24, 02:24:04,VALID,1009.25,VALID,0,INVALID,110.284,VALID,0.112112,VALID,22.3286,VALID,360,VALID,0.926562,
2014-09-24, 02:25:04,VALID,1009.26,VALID,0,INVALID,110.276,VALID,0.112112,VALID,22.3286,VALID,360,VALID,1.15195,
2014-09-24, 02:26:04,VALID,1009.3,VALID,0,INVALID,110.268,VALID,0.112112,VALID,22.3498,VALID,360,VALID,0.824609,
2014-09-24, 02:27:04,VALID,1009.32,VALID,0,INVALID,110.284,VALID,0.112112,VALID,22.3091,VALID,360,VALID,0.935547,
2014-09-24, 02:28:04,VALID,1009.3,VALID,0,INVALID,110.268,VALID,0.112112,VALID,22.3498,VALID,360,VALID,0.906641,
2014-09-24, 02:29:04,VALID,1009.28,VALID,0,INVALID,110.322,VALID,0.112112,VALID,22.3091,VALID,360,VALID,0.512891,
2014-09-24, 02:30:04,VALID,1009.23,VALID,0,INVALID,110.284,VALID,0.112112,VALID,22.3286,VALID,360,VALID,0.669531,
2014-09-24, 02:31:04,VALID,1009.2,VALID,0,INVALID,110.261,VALID,0.112112,VALID,22.3498,VALID,360,VALID,0.405078,
2014-09-24, 02:32:04,VALID,1009.18,VALID,0,INVALID,110.291,VALID,0.112112,VALID,22.3286,VALID,360,VALID,0.307031,
2014-09-24, 02:33:04,VALID,1009.18,VALID,0,INVALID,110.322,VALID,0.112112,VALID,22.3091,VALID,360,VALID,0.658594,
2014-09-24, 02:34:04,VALID,1009.19,VALID,0,INVALID,110.322,VALID,0.112112,VALID,22.3091,VALID,360,VALID,0.360938,
2014-09-24, 02:35:04,VALID,1009.22,VALID,0,INVALID,110.261,VALID,0.112112,VALID,22.3303,VALID,360,VALID,0.562891,
2014-09-24, 02:36:04,VALID,1009.25,VALID,0,INVALID,110.284,VALID,0.112112,VALID,22.3091,VALID,360,VALID,0.564062,
2014-09-24, 02:37:04,VALID,1009.24,VALID,0,INVALID,110.261,VALID,0,VALID,22.3498,VALID,360,VALID,0.327734,
2014-09-24, 02:38:04,VALID,1009.25,VALID,0,INVALID,110.238,VALID,0.112112,VALID,22.3481,VALID,360,VALID,0.021875,
2014-09-24, 02:39:04,VALID,1009.2,VALID,0,INVALID,110.268,VALID,0.112112,VALID,22.3498,VALID,360,VALID,0.319922,
2014-09-24, 02:40:04,VALID,1009.19,VALID,0,INVALID,110.223,VALID,0,VALID,22.3693,VALID,360,VALID,0.169922,
2014-09-24, 02:41:04,VALID,1009.19,VALID,0,INVALID,110.215,VALID,0.112112,VALID,22.3676,VALID,360,VALID,0.242969,
2014-09-24, 02:42:04,VALID,1009.19,VALID,0,INVALID,110.215,VALID,0,VALID,22.3676,VALID,360,VALID,0.310937,
2014-09-24, 02:43:04,VALID,1009.21,VALID,0,INVALID,110.215,VALID,0.112112,VALID,22.387,VALID,360,VALID,0.246484,
2014-09-24, 02:44:04,VALID,1009.22,VALID,0,INVALID,110.215,VALID,0.112112,VALID,22.4277,VALID,359,VALID,0.73125,
2014-09-24, 02:45:04,VALID,1009.23,VALID,0,INVALID,110.177,VALID,0.112112,VALID,22.4277,VALID,359,VALID,1.02539,
2014-09-24, 02:46:04,VALID,1009.19,VALID,0.5,INVALID,110.215,VALID,0.112112,VALID,22.387,VALID,358,VALID,0.909375,
2014-09-24, 02:47:04,VALID,1009.12,VALID,0,INVALID,110.215,VALID,0,VALID,22.4082,VALID,358,VALID,0.680078,
2014-09-24, 02:48:04,VALID,1009.07,VALID,0,INVALID,110.177,VALID,0.112112,VALID,22.4472,VALID,326,VALID,1.36563,
2014-09-24, 02:49:04,VALID,1009.06,VALID,0,INVALID,110.177,VALID,0,VALID,22.4667,VALID,335,VALID,0.570313,
2014-09-24, 02:50:04,VALID,1009,VALID,0,INVALID,110.116,VALID,0.112112,VALID,22.4861,VALID,335,VALID,0.449219,
2014-09-24, 02:51:04,VALID,1009,VALID,0,INVALID,110.108,VALID,0.112112,VALID,22.4844,VALID,335,VALID,0.638281,
2014-09-24, 02:52:04,VALID,1008.98,VALID,0,INVALID,110.207,VALID,0.112112,VALID,22.4861,VALID,314,VALID,0.763672,
2014-09-24, 02:53:04,VALID,1008.97,VALID,0,INVALID,110.146,VALID,0,VALID,22.465,VALID,314,VALID,1.03906,
2014-09-24, 02:54:04,VALID,1009,VALID,0,INVALID,110.2,VALID,0,VALID,22.4667,VALID,315,VALID,0.629687,
2014-09-24, 02:55:04,VALID,1008.98,VALID,0,INVALID,110.2,VALID,0.112112,VALID,22.4667,VALID,293,VALID,0.880469,
2014-09-24, 02:56:04,VALID,1008.99,VALID,0,INVALID,110.261,VALID,0.112112,VALID,22.426,VALID,326,VALID,1.13164,
2014-09-24, 02:57:04,VALID,1008.99,VALID,0,INVALID,110.307,VALID,0,VALID,22.3887,VALID,348,VALID,0.959375,
2014-09-24, 02:58:04,VALID,1009,VALID,0,INVALID,110.299,VALID,0.112112,VALID,22.3887,VALID,347,VALID,0.733984,
2014-09-24, 02:59:04,VALID,1008.99,VALID,0,INVALID,110.329,VALID,0,VALID,22.3693,VALID,334,VALID,1.21016,
2014-09-24, 03:00:04,VALID,1009.01,VALID,0,INVALID,110.284,VALID,0.112112,VALID,22.3693,VALID,323,VALID,0.930859,
2014-09-24, 03:01:04,VALID,1009,VALID,0,INVALID,110.329,VALID,0,VALID,22.3481,VALID,323,VALID,0.500391,
2014-09-24, 03:02:04,VALID,1009.01,VALID,0,INVALID,110.383,VALID,0.112112,VALID,22.3481,VALID,323,VALID,0.444141,
2014-09-24, 03:03:04,VALID,1009.04,VALID,0,INVALID,110.337,VALID,0.112112,VALID,22.3286,VALID,323,VALID,0.40625,
2014-09-24, 03:04:04,VALID,1009.01,VALID,0,INVALID,110.413,VALID,0.112112,VALID,22.3091,VALID,349,VALID,0.886719,
2014-09-24, 03:05:04,VALID,1009.03,VALID,0,INVALID,110.383,VALID,0.112112,VALID,22.3091,VALID,9,VALID,0.589063,
2014-09-24, 03:06:04,VALID,1009.03,VALID,0,INVALID,110.451,VALID,0,VALID,22.3091,VALID,9,VALID,0,
2014-09-24, 03:07:04,VALID,1009.07,VALID,0,INVALID,110.467,VALID,0.112112,VALID,22.2897,VALID,9,VALID,0,
2014-09-24, 03:08:04,VALID,1009.06,VALID,0,INVALID,110.474,VALID,0.112112,VALID,22.3091,VALID,9,VALID,0.515625,
2014-09-24, 03:09:04,VALID,1009.02,VALID,0,INVALID,110.551,VALID,0.112112,VALID,22.2897,VALID,9,VALID,0.297656,
2014-09-24, 03:10:04,VALID,1009.02,VALID,0,INVALID,110.558,VALID,0.112112,VALID,22.2702,VALID,9,VALID,0.918359,
2014-09-24, 03:11:04,VALID,1009,VALID,0,INVALID,110.535,VALID,0.112112,VALID,22.2897,VALID,9,VALID,0.815234,
2014-09-24, 03:12:04,VALID,1009,VALID,0,INVALID,110.551,VALID,0.112112,VALID,22.2897,VALID,9,VALID,0.414844,
2014-09-24, 03:13:04,VALID,1008.97,VALID,0,INVALID,110.642,VALID,0,VALID,22.2914,VALID,320,VALID,0.907422,
2014-09-24, 03:14:04,VALID,1009,VALID,0,INVALID,110.673,VALID,0.112112,VALID,22.2719,VALID,336,VALID,0.321484,
2014-09-24, 03:15:04,VALID,1009.01,VALID,0,INVALID,110.657,VALID,0,VALID,22.2719,VALID,336,VALID,0.314844,
2014-09-24, 03:16:04,VALID,1009.01,VALID,0,INVALID,110.688,VALID,0.112112,VALID,22.2719,VALID,336,VALID,0.287891,
2014-09-24, 03:17:04,VALID,1009.04,VALID,0,INVALID,110.695,VALID,0,VALID,22.2719,VALID,336,VALID,0.5375,
2014-09-24, 03:18:04,VALID,1009.08,VALID,0,INVALID,110.772,VALID,0,VALID,22.2524,VALID,336,VALID,0.409375,
2014-09-24, 03:19:04,VALID,1009.06,VALID,0,INVALID,110.825,VALID,0.112112,VALID,22.2329,VALID,336,VALID,0.409375,
2014-09-24, 03:20:04,VALID,1009.09,VALID,0,INVALID,110.848,VALID,0,VALID,22.2329,VALID,336,VALID,0.291797,
2014-09-24, 03:21:04,VALID,1009.1,VALID,0,INVALID,110.863,VALID,0.112112,VALID,22.2329,VALID,336,VALID,0.464844,
2014-09-24, 03:22:04,VALID,1009.11,VALID,0,INVALID,110.962,VALID,0.112112,VALID,22.1923,VALID,336,VALID,0.516406,
2014-09-24, 03:23:04,VALID,1009.08,VALID,0,INVALID,111,VALID,0.112112,VALID,22.194,VALID,336,VALID,0.571094,
2014-09-24, 03:24:04,VALID,1009.14,VALID,0,INVALID,111.008,VALID,0,VALID,22.1745,VALID,336,VALID,0.0277344,
2014-09-24, 03:25:04,VALID,1009.13,VALID,0,INVALID,111.023,VALID,0.112112,VALID,22.194,VALID,336,VALID,0.502344,
2014-09-24, 03:26:04,VALID,1009.15,VALID,0,INVALID,111.031,VALID,0.112112,VALID,22.1745,VALID,336,VALID,0.505469,
2014-09-24, 03:27:04,VALID,1009.17,VALID,0,INVALID,111.092,VALID,0,VALID,22.1745,VALID,336,VALID,0.314063,
2014-09-24, 03:28:04,VALID,1009.19,VALID,0,INVALID,111.084,VALID,0,VALID,22.2151,VALID,336,VALID,0.344141,
2014-09-24, 03:29:04,VALID,1009.22,VALID,0,INVALID,111.023,VALID,0,VALID,22.2151,VALID,336,VALID,0.206641,
2014-09-24, 03:30:04,VALID,1009.21,VALID,0,INVALID,111.031,VALID,0,VALID,22.2151,VALID,336,VALID,0,
2014-09-24, 03:31:04,VALID,1009.21,VALID,0,INVALID,111.1,VALID,0,VALID,22.1957,VALID,336,VALID,0.155078,
2014-09-24, 03:32:04,VALID,1009.22,VALID,0,INVALID,111.115,VALID,0,VALID,22.194,VALID,336,VALID,0,
2014-09-24, 03:33:04,VALID,1009.2,VALID,0,INVALID,111.084,VALID,0,VALID,22.194,VALID,336,VALID,0,
2014-09-24, 03:34:04,VALID,1009.18,VALID,0,INVALID,111.046,VALID,0,VALID,22.2346,VALID,336,VALID,0,
2014-09-24, 03:35:04,VALID,1009.16,VALID,0,INVALID,111.061,VALID,0,VALID,22.2134,VALID,336,VALID,0.0433594,